Tehachapi, CA

1:09 AM PST on December 09, 2019 (GMT -0800)
Tehachapi Municipal

Weather History for KTSP - October, 2019

Change the Weather History Date:

Friday, October 25, 2019

  Actual Average Record
Temperature  
Mean Temperature 62 °F -  
Max Temperature 75 °F 68 °F 80 °F (2017)
Min Temperature 46 °F 39 °F 33 °F (2016)
Degree Days  
Heating Degree Days 2    
Growing Degree Days 12 (Base 50)    
Moisture  
Dew Point 11 °F    
Average Humidity 16    
Maximum Humidity 41    
Minimum Humidity 7    
Precipitation  
Precipitation 0.00 in - - ()
Sea Level Pressure  
Sea Level Pressure 30.24 in    
Wind  
Wind Speed 10 mph ()    
Max Wind Speed 22 mph    
Max Gust Speed 28 mph    
Visibility 9.4 miles    
Events      
Averages and records for this station are not official NWS values.
T = Trace of Precipitation, MM = Missing Value Source: Averaged Metar Reports

Daily Weather History Graph

Daily Weather History Graph

Search for Another Location

Airport or City:

Astronomy

Oct. 25, 2019 Rise Set
Actual Time 7:08 AM PDT 6:06 PM PDT
Civil Twilight 6:42 AM PDT 6:32 PM PDT
Nautical Twilight 6:12 AM PDT 7:02 PM PDT
Astronomical Twilight 5:43 AM PDT 7:31 PM PDT
Moon 4:07 AM PDT (10/25) 5:02 PM PDT (10/25)
Length of Visible Light 11h 50m
Length of Day
10h 58m
Waning Crescent, 8% of the Moon is Illuminated
Oct 25
Waning Crescent
Oct 27
New
Nov 4
First Quarter
Nov 12
Full
Nov 19
Last Quarter

Hourly Weather History & Observations

Time (PDT) Temp. Dew Point Humidity Pressure Visibility Wind Dir Wind Speed Gust Speed Precip Events Conditions
12:15 AM 55.4 °F -2.2 °F 9% 30.31 in 10.0 mi ESE 8.1 mph - N/A   Partly Cloudy
12:35 AM 57.2 °F -2.2 °F 9% 30.31 in 10.0 mi East 10.4 mph - N/A   Partly Cloudy
12:55 AM 57.2 °F -2.2 °F 9% 30.31 in 10.0 mi ESE 10.4 mph - N/A   Scattered Clouds
1:35 AM 55.4 °F -2.2 °F 9% 30.30 in 10.0 mi East 13.8 mph 17.3 mph N/A   Partly Cloudy
1:55 AM 55.4 °F -2.2 °F 9% 30.30 in 10.0 mi East 10.4 mph - N/A   Partly Cloudy
2:15 AM 55.4 °F -0.4 °F 10% 30.30 in 10.0 mi East 11.5 mph - N/A   Partly Cloudy
2:35 AM 57.2 °F -0.4 °F 10% 30.29 in 10.0 mi East 11.5 mph - N/A   Partly Cloudy
2:55 AM 55.4 °F -2.2 °F 9% 30.30 in 10.0 mi East 10.4 mph 17.3 mph N/A   Partly Cloudy
3:15 AM 55.4 °F -0.4 °F 10% 30.29 in 10.0 mi East 9.2 mph - N/A   Scattered Clouds
3:35 AM 55.4 °F -2.2 °F 9% 30.29 in 10.0 mi East 6.9 mph - N/A   Partly Cloudy
3:55 AM 55.4 °F -2.2 °F 9% 30.29 in 10.0 mi East 10.4 mph - N/A   Scattered Clouds
4:15 AM 55.4 °F -2.2 °F 9% 30.29 in 10.0 mi East 6.9 mph - N/A   Scattered Clouds
4:35 AM 55.4 °F -0.4 °F 10% 30.29 in 10.0 mi East 10.4 mph - N/A   Scattered Clouds
4:55 AM 55.4 °F -0.4 °F 10% 30.29 in 10.0 mi ESE 11.5 mph 17.3 mph N/A   Partly Cloudy
5:15 AM 55.4 °F -0.4 °F 10% 30.28 in 10.0 mi East 10.4 mph 16.1 mph N/A   Partly Cloudy
5:35 AM 55.4 °F -0.4 °F 10% 30.28 in 10.0 mi East 11.5 mph - N/A   Partly Cloudy
5:55 AM 53.6 °F -0.4 °F 11% 30.28 in 10.0 mi East 11.5 mph - N/A   Clear
6:15 AM 55.4 °F -0.4 °F 10% 30.27 in 10.0 mi ESE 15.0 mph 19.6 mph N/A   Partly Cloudy
6:35 AM 55.4 °F -0.4 °F 10% 30.28 in 10.0 mi ESE 16.1 mph - N/A   Partly Cloudy
6:55 AM 57.2 °F -0.4 °F 10% 30.28 in 10.0 mi East 13.8 mph 19.6 mph N/A   Partly Cloudy
7:15 AM 57.2 °F -0.4 °F 10% 30.28 in 10.0 mi SE 12.7 mph 17.3 mph N/A   Clear
7:35 AM 57.2 °F -0.4 °F 10% 30.29 in 10.0 mi ESE 13.8 mph 20.7 mph N/A   Clear
7:55 AM 59.0 °F -0.4 °F 9% 30.29 in 10.0 mi ESE 15.0 mph 23.0 mph N/A   Clear
8:15 AM 60.8 °F 1.4 °F 9% 30.29 in 10.0 mi ESE 15.0 mph 23.0 mph N/A   Clear
8:35 AM 62.6 °F 1.4 °F 9% 30.29 in 10.0 mi SE 18.4 mph 24.2 mph N/A   Clear
8:55 AM 64.4 °F 1.4 °F 8% 30.30 in 9.0 mi SE 19.6 mph 26.5 mph N/A   Clear
9:15 AM 64.4 °F 1.4 °F 8% 30.30 in 10.0 mi SE 18.4 mph 24.2 mph N/A   Clear
9:35 AM 66.2 °F 1.4 °F 8% 30.30 in 10.0 mi SE 19.6 mph 23.0 mph N/A   Clear
9:55 AM 66.2 °F 1.4 °F 8% 30.29 in 9.0 mi SE 15.0 mph 23.0 mph N/A   Clear
10:15 AM 68.0 °F 1.4 °F 7% 30.28 in 8.0 mi ESE 21.9 mph 27.6 mph N/A   Clear
10:55 AM 69.8 °F 3.2 °F 7% 30.28 in 9.0 mi ESE 18.4 mph 25.3 mph N/A   Clear
11:15 AM 71.6 °F 3.2 °F 7% 30.28 in 8.0 mi ESE 15.0 mph 24.2 mph N/A   Clear
11:35 AM 71.6 °F 3.2 °F 7% 30.28 in 9.0 mi ESE 15.0 mph 27.6 mph N/A   Clear
11:55 AM 71.6 °F 5.0 °F 7% 30.27 in 9.0 mi ESE 20.7 mph 27.6 mph N/A   Clear
12:15 PM 73.4 °F 6.8 °F 8% 30.26 in 9.0 mi SE 17.3 mph 23.0 mph N/A   Clear
12:35 PM 73.4 °F 8.6 °F 8% 30.25 in 8.0 mi SE 16.1 mph 21.9 mph N/A   Clear
12:55 PM 73.4 °F 10.4 °F 9% 30.24 in 5.0 mi SE 15.0 mph 20.7 mph N/A   Haze
1:15 PM 73.4 °F 10.4 °F 9% 30.24 in 7.0 mi SE 13.8 mph 19.6 mph N/A   Clear
1:35 PM 75.2 °F 14.0 °F 10% 30.23 in 8.0 mi SSE 12.7 mph 18.4 mph N/A   Clear
1:55 PM 75.2 °F 14.0 °F 10% 30.22 in 8.0 mi ESE 9.2 mph 18.4 mph N/A   Clear
2:15 PM 75.2 °F 15.8 °F 11% 30.21 in 7.0 mi SE 8.1 mph - N/A   Clear
2:35 PM 75.2 °F 15.8 °F 11% 30.20 in 9.0 mi SSE 9.2 mph - N/A   Clear
2:55 PM 75.2 °F 15.8 °F 11% 30.20 in 7.0 mi SE 9.2 mph - N/A   Clear
3:15 PM 75.2 °F 15.8 °F 11% 30.19 in 7.0 mi SSE 9.2 mph - N/A   Clear
3:35 PM 75.2 °F 15.8 °F 11% 30.18 in 9.0 mi SSE 5.8 mph - N/A   Clear
3:55 PM 75.2 °F 15.8 °F 11% 30.18 in 10.0 mi SSE 5.8 mph - N/A   Clear
4:15 PM 75.2 °F 15.8 °F 11% 30.18 in 9.0 mi West 3.5 mph - N/A   Clear
4:35 PM 75.2 °F 17.6 °F 11% 30.18 in 9.0 mi NW 11.5 mph - N/A   Clear
4:55 PM 73.4 °F 19.4 °F 13% 30.18 in 9.0 mi NW 11.5 mph - N/A   Clear
5:15 PM 71.6 °F 19.4 °F 14% 30.17 in 9.0 mi NW 8.1 mph - N/A   Clear
5:35 PM 68.0 °F 19.4 °F 16% 30.17 in 9.0 mi NW 12.7 mph - N/A   Clear
5:55 PM 66.2 °F 23.0 °F 19% 30.17 in 9.0 mi NW 11.5 mph - N/A   Clear
6:15 PM 64.4 °F 24.8 °F 22% 30.17 in 9.0 mi NW 10.4 mph - N/A   Clear
6:35 PM 64.4 °F 26.6 °F 24% 30.17 in 10.0 mi WNW 5.8 mph - N/A   Clear
6:55 PM 59.0 °F 26.6 °F 29% 30.18 in 10.0 mi WSW 5.8 mph - N/A   Clear
7:15 PM 59.0 °F 28.4 °F 31% 30.18 in 10.0 mi WSW 5.8 mph - N/A   Clear
7:35 PM 57.2 °F 24.8 °F 29% 30.18 in 10.0 mi West 6.9 mph - N/A   Clear
7:55 PM 57.2 °F 23.0 °F 27% 30.18 in 10.0 mi West 6.9 mph - N/A   Clear
8:15 PM 55.4 °F 24.8 °F 31% 30.18 in 10.0 mi WNW 3.5 mph - N/A   Clear
8:35 PM 57.2 °F 26.6 °F 31% 30.18 in 10.0 mi NNW 3.5 mph - N/A   Clear
8:55 PM 55.4 °F 28.4 °F 36% 30.17 in 10.0 mi North 4.6 mph - N/A   Clear
9:15 PM 55.4 °F 32.0 °F 41% 30.17 in 10.0 mi North 4.6 mph - N/A   Clear
9:35 PM 55.4 °F 28.4 °F 36% 30.17 in 10.0 mi Calm Calm - N/A   Clear
9:55 PM 53.6 °F 26.6 °F 35% 30.17 in 10.0 mi Calm Calm - N/A   Clear
10:15 PM 51.8 °F 26.6 °F 38% 30.17 in 10.0 mi WSW 3.5 mph - N/A   Clear
10:35 PM 51.8 °F 24.8 °F 35% 30.17 in 10.0 mi Calm Calm - N/A   Clear
10:55 PM 53.6 °F 23.0 °F 30% 30.17 in 10.0 mi West 3.5 mph - N/A   Clear
11:15 PM 50.0 °F 23.0 °F 35% 30.16 in 10.0 mi WNW 3.5 mph - N/A   Clear
11:35 PM 50.0 °F 24.8 °F 37% 30.15 in 10.0 mi North 3.5 mph - N/A   Clear
11:55 PM 46.4 °F 23.0 °F 40% 30.15 in 10.0 mi Calm Calm - N/A   Clear